September 19, 2014
Temp
 
67.7 °F
 
Dew Pt.
 
61.3 °F
 
Humidity
 
80%
 
Pressure
 
1011.0 hPa 
  steady
Wind
 
0.0 mph 
    SE
Rain
 
0.00 in 
  0.00 in/hr
UV index
 
0.0  
 
Solar rad.
 
0 W/m²
 
Today

Chance Drizzle
Chance
Drizzle
Tonight

Patchy Fog
Patchy
Fog
Hi 79 °F Lo 64 °F
Statistics - 9/19/2014
Max Temp 68.8 °F  12:00 am
Min Temp 67.7 °F  4:45 am
Max Dew Pt 61.7 °F  2:20 am
Min Dew Pt 60.6 °F  12:05 am
Max Pressure 1011.1 hPa  4:35 am
Min Pressure 1010.6 hPa  1:10 am
Max Wind 4 mph  1:25 am
Max UV —   —
Max Solar —   —
Max Rainfall Rate —   —
Total Precipitation —   
Current Temp 67.7 °F  4:45 am
Temp 24hr ago 67.1 °F  4:45 am
Difference +0.6 °F  
Temp Rate -0.1 °F/hr  
Pressure Rate +0.1 hPa/hr  
time temp dew pt pressure uv solar wind wind speed rainfall rate
00:00 68.6 °F 60.7 °F 1010.6 hPa  Calm    
00:05 68.5 °F 60.6 °F 1010.7 hPa  Calm    
00:10 68.4 °F 60.9 °F 1010.7 hPa  WSW 1 mph   
00:15 68.4 °F 60.9 °F 1010.7 hPa  Calm    
00:20 68.3 °F 60.8 °F 1010.9 hPa  Calm    
00:25 68.3 °F 60.8 °F 1010.9 hPa  Calm    
00:30 68.3 °F 60.8 °F 1010.8 hPa  Calm    
00:35 68.3 °F 60.8 °F 1010.8 hPa  Calm    
00:40 68.4 °F 60.9 °F 1010.8 hPa  Calm    
00:45 68.4 °F 61.3 °F 1010.8 hPa  Calm    
00:50 68.5 °F 61.4 °F 1010.8 hPa  Calm    
00:55 68.5 °F 61.4 °F 1010.8 hPa  Calm    
01:00 68.5 °F 61.4 °F 1010.8 hPa  Calm    
01:05 68.5 °F 61.4 °F 1010.7 hPa  Calm    
01:10 68.5 °F 61.4 °F 1010.6 hPa  Calm    
01:15 68.4 °F 61.3 °F 1010.7 hPa  Calm    
01:20 68.4 °F 61.3 °F 1010.7 hPa  SE 3 mph   
01:25 68.3 °F 61.2 °F 1010.8 hPa  SE 4 mph   
01:30 68.3 °F 61.2 °F 1010.8 hPa  Calm    
01:35 68.3 °F 61.2 °F 1010.9 hPa  SE 3 mph   
01:40 68.3 °F 61.2 °F 1010.9 hPa  SE 2 mph   
01:45 68.3 °F 61.2 °F 1010.9 hPa  Calm    
01:50 68.3 °F 61.2 °F 1010.9 hPa  Calm    
01:55 68.3 °F 61.2 °F 1010.8 hPa  Calm    
02:00 68.4 °F 61.6 °F 1010.9 hPa  Calm    
02:05 68.4 °F 61.3 °F 1010.9 hPa  Calm    
02:10 68.5 °F 61.7 °F 1010.9 hPa  Calm    
02:15 68.5 °F 61.4 °F 1010.9 hPa  Calm    
02:20 68.5 °F 61.7 °F 1010.9 hPa  Calm    
02:25 68.5 °F 61.4 °F 1010.9 hPa  Calm    
02:30 68.5 °F 61.4 °F 1010.9 hPa  Calm    
02:35 68.5 °F 61.4 °F 1010.8 hPa  Calm    
02:40 68.5 °F 61.4 °F 1010.8 hPa  Calm    
02:45 68.4 °F 61.3 °F 1010.8 hPa  Calm    
02:50 68.4 °F 61.3 °F 1010.8 hPa  Calm    
02:55 68.4 °F 61.3 °F 1010.8 hPa  Calm    
03:00 68.4 °F 61.3 °F 1010.8 hPa  Calm    
03:05 68.3 °F 61.2 °F 1010.8 hPa  Calm    
03:10 68.3 °F 61.2 °F 1010.8 hPa  Calm    
03:15 68.2 °F 61.1 °F 1010.8 hPa  Calm    
03:20 68.1 °F 61.0 °F 1010.9 hPa  Calm    
03:25 68.1 °F 61.0 °F 1011.0 hPa  Calm    
03:30 68.1 °F 61.0 °F 1011.0 hPa  Calm    
03:35 68.0 °F 60.9 °F 1011.0 hPa  Calm    
03:40 68.0 °F 60.9 °F 1011.0 hPa  Calm    
03:45 68.0 °F 61.2 °F 1011.0 hPa  Calm    
03:50 67.9 °F 61.1 °F 1011.0 hPa  Calm    
03:55 67.9 °F 61.1 °F 1011.0 hPa  Calm    
04:00 67.8 °F 61.0 °F 1011.0 hPa  Calm    
04:05 67.7 °F 60.9 °F 1011.0 hPa  Calm    
04:10 67.7 °F 60.9 °F 1011.0 hPa  Calm    
04:15 67.7 °F 60.9 °F 1011.0 hPa  Calm    
04:20 67.8 °F 61.4 °F 1011.1 hPa  Calm    
04:25 67.8 °F 61.4 °F 1011.0 hPa  Calm    
04:30 67.8 °F 61.4 °F 1011.0 hPa  Calm    
04:35 67.8 °F 61.4 °F 1011.1 hPa  Calm    
04:40 67.8 °F 61.4 °F 1011.0 hPa  Calm    
04:45 67.7 °F 61.3 °F 1011.0 hPa  Calm